Date String (YYYY-MM-DD hh:mm:ss) UTC,Instrument flags,Ambient pressure (hPa),Sample flow (lpm),Bypass flow (lpm),Sample temperature (°C),Ambient temperature (°C),ASC tube jacket temperature (°C),LED temperature (°C),Box temperature (°C),Sample RH (%),Span deviation,Mass concentration (μg/m³),Mass concentration (μg/m³),Mass concentration (μg/m³)
DateTimeUTC,F1_M11,P_M11,Q1_M11,Q2_M11,T1_M11,T2_M11,T3_M11,T4_M11,T5_M11,U1_M11,ZSPAN_M11,X0_M11,X2_M11,X1_M11
2023-04-14 09:00:00,,0818.7,5.00,0.00,27.7,25.9,00.0,36.1,29.2,13.2,0000.0,0010.09,0003.52,0001.98
2023-04-14 09:01:00,,0818.8,4.99,0.00,27.7,25.9,00.0,36.1,29.2,13.1,0000.0,0010.30,0003.50,0001.97
2023-04-14 09:02:00,,0818.8,5.00,0.00,27.7,25.8,00.0,36.1,29.2,13.2,0000.0,0010.27,0003.47,0001.97
2023-04-14 09:03:00,,0818.8,4.99,0.00,27.7,25.8,00.0,36.1,29.2,13.2,0000.0,0009.78,0003.46,0001.99
2023-04-14 09:04:00,,0818.8,4.99,0.00,27.7,25.8,00.0,36.1,29.2,13.2,0000.0,0010.21,0003.49,0002.00
2023-04-14 09:05:00,,0818.8,4.99,0.00,27.6,25.8,00.0,36.1,29.2,13.2,0000.0,0010.47,0003.49,0002.01
2023-04-14 09:06:00,,0818.9,5.00,0.00,27.6,25.8,00.0,36.0,29.2,13.2,0000.0,0009.70,0003.50,0002.04
2023-04-14 09:07:00,,0818.8,5.00,0.00,27.6,25.8,00.0,36.0,29.2,13.2,0000.0,0009.55,0003.46,0002.05
2023-04-14 09:08:00,,0818.9,5.00,0.00,27.6,25.8,00.0,36.0,29.1,13.1,0000.0,0009.96,0003.45,0002.06
2023-04-14 09:09:00,,0818.8,5.00,0.00,27.6,25.8,00.0,36.0,29.1,13.1,0000.0,0010.53,0003.47,0002.04
2023-04-14 09:10:00,,0818.9,5.00,0.00,27.6,25.8,00.0,36.0,29.1,13.2,0000.0,0010.48,0003.47,0002.04
2023-04-14 09:11:00,,0818.9,5.00,0.00,27.6,25.8,00.0,36.0,29.1,13.2,0000.0,0010.10,0003.48,0002.05
2023-04-14 09:12:00,,0818.9,4.99,0.00,27.6,25.8,00.0,36.0,29.1,13.2,0000.0,0009.86,0003.46,0002.05
2023-04-14 09:13:00,,0818.8,5.01,0.00,27.6,25.8,00.0,36.0,29.1,13.2,0000.0,0010.30,0003.47,0002.05
2023-04-14 09:14:00,,0818.9,5.01,0.00,27.6,25.8,00.0,36.0,29.1,13.2,0000.0,0010.68,0003.44,0002.05
2023-04-14 09:15:00,,0818.9,4.99,0.00,27.6,25.8,00.0,36.0,29.1,13.2,0000.0,0010.91,0003.43,0002.06
2023-04-14 09:16:00,,0818.8,5.00,0.00,27.6,25.8,00.0,36.0,29.1,13.2,0000.0,0010.91,0003.42,0002.07
2023-04-14 09:17:00,,0818.9,5.01,0.00,27.6,25.8,00.0,36.0,29.2,13.2,0000.0,0010.99,0003.47,0002.06
2023-04-14 09:18:00,,0818.9,5.00,0.00,27.6,25.8,00.0,36.0,29.1,13.2,0000.0,0011.00,0003.50,0002.06
2023-04-14 09:19:00,,0818.8,4.99,0.00,27.6,25.8,00.0,36.0,29.1,13.2,0000.0,0011.24,0003.47,0002.07
2023-04-14 09:20:00,,0819.2,4.99,0.00,27.6,25.8,00.0,36.0,29.1,13.2,0000.0,0010.78,0003.44,0002.09
2023-04-14 09:21:00,,0819.3,4.99,0.00,27.6,25.8,00.0,35.9,29.1,13.2,0000.0,0012.21,0003.47,0002.09
2023-04-14 09:22:00,,0819.2,5.01,0.00,27.6,25.8,00.0,35.9,29.1,13.2,0000.0,0012.61,0003.50,0002.11
2023-04-14 09:23:00,,0819.1,5.01,0.00,27.6,25.8,00.0,35.9,29.1,13.3,0000.0,0012.50,0003.50,0002.11
2023-04-14 09:24:00,,0818.9,5.00,0.00,27.6,25.8,00.0,35.9,29.1,13.3,0000.0,0011.76,0003.49,0002.12
2023-04-14 09:25:00,,0818.9,4.99,0.00,27.6,25.8,00.0,35.9,29.1,13.3,0000.0,0011.53,0003.51,0002.10
2023-04-14 09:26:00,,0818.9,4.99,0.00,27.6,25.8,00.0,35.9,29.1,13.3,0000.0,0011.38,0003.50,0002.10
2023-04-14 09:27:00,,0818.9,5.01,0.00,27.6,25.8,00.0,35.9,29.1,13.3,0000.0,0011.81,0003.51,0002.10
2023-04-14 09:28:00,,0819.1,5.01,0.00,27.6,25.8,00.0,35.9,29.1,13.3,0000.0,0012.64,0003.48,0002.09
2023-04-14 09:29:00,,0818.9,5.00,0.00,27.6,25.8,00.0,35.9,29.1,13.3,0000.0,0014.03,0003.48,0002.09
2023-04-14 09:30:00,,0819.0,5.00,0.00,27.6,25.8,00.0,35.9,29.1,13.4,0000.0,0013.65,0003.50,0002.08
2023-04-14 09:31:00,,0818.9,5.00,0.00,27.6,25.8,00.0,35.9,29.1,13.4,0000.0,0013.49,0003.48,0002.08
2023-04-14 09:32:00,,0818.9,5.01,0.00,27.6,25.8,00.0,35.9,29.1,13.4,0000.0,0012.14,0003.43,0002.08
2023-04-14 09:33:00,,0819.1,5.00,0.00,27.6,25.8,00.0,35.9,29.1,13.4,0000.0,0012.63,0003.46,0002.09
2023-04-14 09:34:00,,0819.5,5.01,0.00,27.6,25.8,00.0,35.9,29.1,13.4,0000.0,0012.96,0003.48,0002.10
2023-04-14 09:35:00,,0819.4,4.99,0.00,27.6,25.8,00.0,35.9,29.2,13.4,0000.0,0013.11,0003.49,0002.10
2023-04-14 09:36:00,,0819.2,5.01,0.00,27.6,25.8,00.0,35.9,29.2,13.4,0000.0,0013.15,0003.51,0002.12
2023-04-14 09:37:00,,0819.0,5.01,0.00,27.6,25.8,00.0,35.9,29.1,13.4,0000.0,0013.30,0003.47,0002.13
2023-04-14 09:38:00,,0818.9,5.00,0.00,27.6,25.8,00.0,35.9,29.1,13.4,0000.0,0012.90,0003.44,0002.13
2023-04-14 09:39:00,,0818.9,4.99,0.00,27.6,25.8,00.0,35.9,29.1,13.4,0000.0,0012.49,0003.48,0002.15
2023-04-14 09:40:00,,0818.8,5.00,0.00,27.6,25.8,00.0,35.9,29.1,13.4,0000.0,0010.96,0003.51,0002.17
2023-04-14 09:41:00,,0818.7,5.00,0.00,27.6,25.8,00.0,35.9,29.1,13.4,0000.0,0010.63,0003.55,0002.17
2023-04-14 09:42:00,,0818.8,5.01,0.00,27.5,25.8,00.0,35.9,29.1,13.4,0000.0,0010.80,0003.61,0002.18
2023-04-14 09:43:00,,0818.8,4.99,0.00,27.6,25.8,00.0,35.9,29.1,13.4,0000.0,0010.81,0003.62,0002.18
2023-04-14 09:44:00,,0818.8,5.00,0.00,27.5,25.8,00.0,35.9,29.1,13.4,0000.0,0010.47,0003.65,0002.18
2023-04-14 09:45:00,,0819.0,5.00,0.00,27.5,25.8,00.0,35.9,29.1,13.5,0000.0,0010.40,0003.67,0002.19
2023-04-14 09:46:00,,0819.3,5.00,0.00,27.5,25.8,00.0,35.9,29.1,13.5,0000.0,0010.52,0003.69,0002.17
2023-04-14 09:47:00,,0819.0,5.01,0.00,27.5,25.8,00.0,35.9,29.1,13.5,0000.0,0010.41,0003.69,0002.15
2023-04-14 09:48:00,,0819.0,5.00,0.00,27.5,25.7,00.0,35.9,29.1,13.5,0000.0,0010.01,0003.74,0002.14
2023-04-14 09:49:00,,0819.0,4.99,0.00,27.5,25.7,00.0,35.9,29.0,13.5,0000.0,0010.19,0003.76,0002.13
2023-04-14 09:50:00,,0819.0,5.01,0.00,27.5,25.7,00.0,35.9,29.0,13.5,0000.0,0009.77,0003.77,0002.12
2023-04-14 09:51:00,,0819.1,5.01,0.00,27.5,25.7,00.0,35.8,29.0,13.6,0000.0,0009.67,0003.75,0002.11
2023-04-14 09:52:00,,0819.1,4.99,0.00,27.4,25.6,00.0,35.8,28.9,13.5,0000.0,0009.58,0003.71,0002.12
2023-04-14 09:53:00,,0819.1,5.00,0.00,27.4,25.6,00.0,35.8,28.9,13.6,0000.0,0009.53,0003.68,0002.11
2023-04-14 09:54:00,,0819.0,5.01,0.00,27.4,25.6,00.0,35.8,28.9,13.6,0000.0,0009.44,0003.68,0002.12
2023-04-14 09:55:00,,0819.0,5.00,0.00,27.4,25.6,00.0,35.8,28.9,13.6,0000.0,0010.11,0003.65,0002.13
2023-04-14 09:56:00,,0818.9,5.00,0.00,27.4,25.6,00.0,35.8,28.8,13.7,0000.0,0010.44,0003.68,0002.14
2023-04-14 09:57:00,,0818.9,5.00,0.00,27.3,25.5,00.0,35.8,28.8,13.9,0000.0,0010.53,0003.69,0002.16
2023-04-14 09:58:00,,0818.9,5.00,0.00,27.3,25.5,00.0,35.8,28.7,14.0,0000.0,0010.81,0003.67,0002.17
2023-04-14 09:59:00,,0819.0,5.01,0.00,27.3,25.4,00.0,35.7,28.7,14.1,0000.0,0011.49,0003.67,0002.18
